Regional Weather Roundup
Issued by NWS

Home | Current Version | Previous Version | Text Only | Print | Product List | Glossary On
Versions: 1 2 3 4 5 6 7 8 9 10 11 12 13 14 15 16 17 18 19 20 21 22 23 24 25 26 27 28 29 30 31 32 33 34 35 36 37 38 39 40 41 42 43 44 45 46 47 48 49 50
000
ASUS44 KLIX 270211
RWRLA
LOUISIANA WEATHER ROUNDUP
NATIONAL WEATHER SERVICE NEW ORLEANS LA
900 PM CDT TUE MAY 26 2015

NOTE: "FAIR" INDICATES FEW OR NO CLOUDS BELOW 12,000 FEET WITH NO
      SIGNIFICANT WEATHER AND/OR OBSTRUCTIONS TO VISIBILITY.
      SKY/WX - SKY CONDITION AND SIGNIFICANT WEATHER.
      TMP - AIR TEMPERATURE.    DP   - DEWPOINT TEMPERATURE.
      RH  - RELATIVE HUMIDITY.  PRES - PRESSURE.
      HX  - HEAT INDEX.         WCI  - WIND CHILL INDEX.

*  THESE STATIONS ARE NOT NWS OR FAA STATIONS AND ARE NOT UNDER
   NWS QUALITY CONTROL.

LAZ040-048-061>063-065-066-069-270300-
SOUTHEAST LOUISIANA

CITY           SKY/WX    TMP DP  RH WIND       PRES   REMARKS
N.O. AUDUBON     N/A     81  75  82 MISG        N/A
N.O. INTL ARPT PTCLDY    80  69  69 SE3       30.09R
N.O. LAKEFRONT PTCLDY    82  72  71 SE8       30.09R
SLIDELL        PTCLDY    77  75  93 E3        30.09R
BATON ROUGE    PTCLDY    75  70  84 NE5       30.08R
BOOTHVILLE     MOCLDY    78  75  90 SE6       30.09R
BELLE CHASSE   MOCLDY    78  72  81 SE6       30.08R
BOGALUSA*        N/A     77  72  84 CALM      30.11R
GALLIANO*      CLEAR     76  73  90 CALM      30.09R
NEW ROADS*     CLOUDY    77  70  80 E3        30.08S
GONZALES*      FAIR      78  73  82 E3        30.08R
HAMMOND*       CLEAR     77  70  78 CALM      30.11R
HOUMA*         PTCLDY    75  72  91 CALM      30.08R
PORT FOURCHON* CLEAR     81  73  78 SE12G17   30.08R

$$

LAZ041-044-053-054-270300-
SOUTHWEST LOUISIANA

CITY           SKY/WX    TMP DP  RH WIND       PRES   REMARKS
LAKE CHARLES   CLOUDY    79  72  79 SE7       30.05R
LAFAYETTE      MOCLDY    80  72  76 S3        30.07R
PATTERSON      CLEAR     79  68  69 SE6       30.09R
SALT POINT       N/A     78  73  84 SE5       30.06R
NEW IBERIA     MOCLDY    80  73  79 S5        30.08R
CHENAULT AIRPK NOT AVBL

$$

LAZ027-028-270300-
CENTRAL LOUISIANA

CITY           SKY/WX    TMP DP  RH WIND       PRES   REMARKS
FORT POLK      MOCLDY    77  74  90 E6        30.05R
ALEXANDRIA INT PTCLDY    75  70  84 SE8       30.05R
ALEXANDRIA     PTCLDY    71  69  93 CALM      30.07R

$$

LAZ001-002-270300-
NORTHWEST LOUISIANA

CITY           SKY/WX    TMP DP  RH WIND       PRES   REMARKS
SHREVEPORT     CLOUDY    73  71  93 CALM      30.05R THUNDER
BARKSDALE AFB  MOCLDY    70  70  98 SE7       30.05S
DTN SHREVEPORT CLOUDY    73  69  87 S8        30.05R

$$

LAZ014-016-270300-
NORTHEAST LOUISIANA

CITY           SKY/WX    TMP DP  RH WIND       PRES   REMARKS
MONROE         CLOUDY    78  71  79 S6        30.07R
TALLULAH       PTCLDY    76  69  79 S5        30.07R

$$




USA.gov is the U.S. government's official web portal to all federal, state and local government web resources and services.